FW7313 Weather Reports


time (UTC)temp
C
wind
direction
speed
KPH
gust
KPH
rain 1hr
cm
rain 24hr
cm
rain mn
cm
humidity
%
barometer
mb
20260502181510 22 20 16.1 22.5 0.00 0.00 0.00 34 1018.2
20260502181008 23 32 1.6 12.9 0.00 0.00 0.00 33 1018.3
20260502180504 22 7 6.4 11.3 0.00 0.00 0.00 37 1018.5
20260502170418 22 22 17.7 35.4 0.00 0.00 0.00 36 1018.5
20260502163901 21 18 9.7 16.1 0.00 0.00 0.00 43 1018.3
20260502163358 21 38 9.7 16.1 0.00 0.00 0.00 45 1018.3
20260502162855 21 8 14.5 20.9 0.00 0.00 0.00 46 1018.2
20260502162352 21 18 6.4 20.9 0.00 0.00 0.00 43 1018.3
20260502161849 20 42 6.4 16.1 0.00 0.00 0.00 47 1018.0
20260502161345 20 21 9.7 20.9 0.00 0.00 0.00 49 1018.2
20260502160843 20 53 8.0 17.7 0.00 0.00 0.00 49 1018.0
20260502160341 20 100 6.4 22.5 0.00 0.00 0.00 48 1018.3
20260502152322 19 27 6.4 17.7 0.00 0.00 0.00 56 1018.2
20260502151820 18 41 12.9 20.9 0.00 0.00 0.00 56 1018.1
20260502151316 18 10 16.1 24.1 0.00 0.00 0.00 57 1018.1
20260502150814 18 343 11.3 24.1 0.00 0.00 0.00 59 1018.4
20260502150310 18 40 4.8 22.5 0.00 0.00 0.00 61 1018.1
20260502130659 14 38 3.2 11.3 0.00 0.00 0.00 76 1017.0
20260502130156 14 12 8.0 20.9 0.00 0.00 0.00 77 1017.3
20260502123642 13 34 4.8 12.9 0.00 0.00 0.00 79 1016.9
20260502123139 13 26 6.4 9.7 0.00 0.00 0.00 80 1016.6
20260502122635 13 321 12.9 16.1 0.00 0.00 0.00 81 1016.6
20260502122132 13 19 4.8 16.1 0.00 0.00 0.00 81 1016.5
20260502121630 12 44 4.8 6.4 0.00 0.00 0.00 82 1016.2
20260502121127 12 40 0.0 17.7 0.00 0.00 0.00 82 1016.3
20260502120624 12 47 4.8 16.1 0.00 0.00 0.00 82 1016.1
20260502120120 12 51 8.0 16.1 0.00 0.00 0.00 83 1016.1
20260502115618 12 38 1.6 12.9 0.00 0.00 0.00 83 1016.1
20260502115114 12 31 4.8 12.9 0.00 0.00 0.00 83 1015.8
20260502114610 12 335 4.8 12.9 0.00 0.00 0.00 83 1016.0
20260502114108 12 24 8.0 11.3 0.00 0.00 0.00 82 1015.9
20260502113605 12 42 3.2 12.9 0.00 0.00 0.00 82 1015.9
20260502113104 12 17 6.4 12.9 0.00 0.00 0.00 81 1015.8
20260502112601 12 353 6.4 12.9 0.00 0.00 0.00 80 1015.6
20260502112058 12 4 4.8 16.1 0.00 0.00 0.00 78 1015.8
20260502111556 12 333 6.4 12.9 0.00 0.00 0.00 78 1015.5
20260502111053 12 49 6.4 16.1 0.00 0.00 0.00 78 1015.5
20260502110550 12 29 3.2 16.1 0.00 0.00 0.00 78 1015.7
20260502110048 12 30 3.2 9.7 0.00 0.00 0.00 79 1015.6
20260502105545 12 23 4.8 12.9 0.00 0.00 0.00 79 1015.5
20260502105042 12 5 1.6 9.7 0.00 0.00 0.00 79 1015.4
20260502104539 12 3 3.2 16.1 0.00 0.00 0.00 79 1015.3
20260502104037 12 24 8.0 12.9 0.00 0.00 0.00 79 1015.2
20260502103534 12 25 6.4 12.9 0.00 0.00 0.00 79 1015.1
20260502103032 12 15 6.4 11.3 0.00 0.00 0.00 79 1014.8
20260502102528 12 23 4.8 11.3 0.00 0.00 0.00 78 1015.0
20260502102026 12 350 4.8 11.3 0.00 0.00 0.00 79 1015.0
20260502101523 12 36 1.6 11.3 0.00 0.00 0.00 80 1014.6
20260502101022 12 350 9.7 12.9 0.00 0.00 0.00 80 1014.6
20260502100520 12 3 4.8 11.3 0.00 0.00 0.00 80 1014.3
20260502091454 12 18 8.0 24.1 0.00 0.00 0.00 80 1013.8
20260502090952 12 11 8.0 12.9 0.00 0.00 0.00 80 1013.3
20260502090448 12 31 12.9 16.1 0.00 0.00 0.00 80 1013.8
20260502071343 13 15 6.4 17.7 0.00 0.00 0.00 82 1013.5
20260502070841 13 5 8.0 22.5 0.00 0.00 0.00 83 1014.0
20260502070338 13 77 9.7 20.9 0.00 0.00 0.00 84 1013.5
20260502065837 13 45 3.2 12.9 0.00 0.00 0.00 84 1013.5
20260502065335 13 33 4.8 11.3 0.00 0.00 0.00 84 1013.6
20260502064832 13 44 16.1 22.5 0.00 0.00 0.00 84 1013.5
20260502064330 13 22 4.8 11.3 0.00 0.00 0.00 84 1013.4
20260502063827 13 71 3.2 9.7 0.00 0.00 0.00 84 1013.4
20260502063325 13 21 1.6 12.9 0.00 0.00 0.00 83 1013.1
20260502062822 13 61 4.8 12.9 0.00 0.00 0.00 83 1013.4
20260502062320 13 37 9.7 16.1 0.00 0.00 0.00 83 1013.3
20260502061818 13 78 12.9 24.1 0.00 0.00 0.00 83 1013.4
20260502061316 13 44 6.4 17.7 0.00 0.00 0.00 83 1013.4
20260502060811 13 30 6.4 17.7 0.00 0.00 0.00 83 1013.4
20260502060306 13 32 9.7 12.9 0.00 0.00 0.00 83 1013.3
20260502055805 13 51 4.8 24.1 0.00 0.00 0.00 83 1013.2
20260502055305 13 31 14.5 20.9 0.00 0.00 0.00 83 1013.4
20260502054801 13 38 4.8 17.7 0.00 0.00 0.00 83 1013.3
20260502054259 13 24 0.0 24.1 0.00 0.00 0.00 84 1013.5
20260502053756 13 14 12.9 24.1 0.00 0.00 0.00 84 1013.6
20260502053253 13 13 8.0 24.1 0.00 0.00 0.00 85 1013.8
20260502052751 13 34 4.8 16.1 0.00 0.00 0.00 85 1013.9
20260502052249 13 358 17.7 22.5 0.00 0.00 0.00 85 1014.0
20260502051746 13 14 12.9 17.7 0.00 0.00 0.00 85 1013.8
20260502051245 13 12 12.9 22.5 0.00 0.00 0.00 85 1013.4
20260502050741 13 19 9.7 22.5 0.00 0.00 0.00 85 1013.5
20260502050236 13 31 8.0 27.4 0.00 0.00 0.00 85 1013.8
20260502045734 13 13 14.5 20.9 0.00 6.48 6.48 85 1013.9
20260502045231 13 27 4.8 29.0 0.00 6.48 6.48 85 1013.6
20260502044728 13 22 9.7 12.9 0.00 6.48 6.48 86 1013.5
20260502044224 13 358 22.5 29.0 0.00 6.48 6.48 86 1013.6
20260502043721 13 29 11.3 22.5 0.00 6.48 6.48 86 1013.7
20260502043219 13 46 8.0 24.1 0.00 6.48 6.48 86 1013.6
20260502042718 13 50 6.4 24.1 0.00 6.48 6.48 86 1013.5
20260502042216 13 21 12.9 17.7 0.00 6.48 6.48 86 1013.5
20260502041713 13 17 12.9 22.5 0.00 6.48 6.48 86 1013.8
20260502041210 13 35 14.5 29.0 0.00 6.48 6.48 86 1013.6
20260502040707 13 0 19.3 27.4 0.00 6.48 6.48 86 1013.4
20260502040204 13 312 16.1 33.8 0.00 6.48 6.48 87 1013.4
20260502035700 13 22 9.7 24.1 0.00 6.48 6.48 87 1013.1
20260502035157 13 359 22.5 32.2 0.00 6.48 6.48 88 1013.0
20260502034655 13 22 14.5 24.1 0.00 6.48 6.48 88 1012.9
20260502034153 14 56 14.5 24.1 0.00 6.48 6.48 88 1012.6
20260502033651 14 23 16.1 22.5 0.00 6.48 6.48 88 1012.8
20260502033148 14 8 11.3 24.1 0.00 6.48 6.48 88 1012.5
20260502032644 14 18 14.5 22.5 0.00 6.48 6.48 89 1012.4
20260502032141 14 21 8.0 20.9 0.00 6.48 6.48 89 1012.1
20260502031638 14 310 12.9 22.5 0.00 6.48 6.48 89 1012.1
20260502031136 14 1 11.3 20.9 0.18 6.48 6.48 89 1011.9
20260502030635 14 32 11.3 27.4 0.61 6.48 6.48 89 1011.6
20260502030133 14 21 8.0 20.9 0.61 6.45 6.45 89 1011.3
20260502025629 15 38 1.6 12.9 0.18 6.38 6.38 89 1011.4
20260502025127 15 16 11.3 17.7 0.00 6.35 6.35 89 1011.7
20260502024625 15 21 11.3 27.4 0.13 6.35 6.35 89 1011.7
20260502024123 15 47 3.2 11.3 0.30 6.35 6.35 89 1011.7
20260502023621 15 327 11.3 16.1 0.18 6.32 6.32 89 1011.8
20260502023118 15 352 14.5 22.5 0.18 6.30 6.30 89 1011.9
20260502022614 15 351 16.1 20.9 0.18 6.30 6.30 89 1011.7
20260502022112 15 347 11.3 16.1 0.00 6.27 6.27 89 1011.7
20260502021609 15 11 14.5 24.1 0.13 6.27 6.27 89 1011.7
20260502021106 15 19 8.0 12.9 0.13 6.27 6.27 89 1011.7
20260502020604 15 15 4.8 12.9 0.00 6.25 6.25 89 1011.7
20260502020100 15 22 11.3 22.5 0.00 6.25 6.25 89 1011.7
20260502015558 15 19 14.5 27.4 0.00 6.25 6.25 90 1011.3
20260502015054 15 16 14.5 20.9 0.00 6.25 6.25 90 1011.2
20260502014551 15 25 14.5 27.4 0.00 6.25 6.25 90 1011.2
20260502014048 15 5 3.2 9.7 0.00 6.25 6.25 90 1011.1
20260502013543 15 353 16.1 17.7 0.18 6.25 6.25 90 1010.8
20260502013040 15 352 12.9 17.7 0.30 6.22 6.22 90 1010.8
20260502012537 15 33 6.4 12.9 0.43 6.22 6.22 90 1010.7
20260502012035 15 348 6.4 17.7 0.30 6.17 6.17 90 1010.4
20260502011532 15 6 19.3 24.1 0.13 6.12 6.12 90 1010.1
20260502011028 15 6 8.0 16.1 0.13 6.12 6.12 90 1009.7
20260502010526 15 30 4.8 9.7 0.18 6.10 6.10 90 1009.4
20260502010021 15 47 4.8 12.9 0.30 6.10 6.10 90 1009.1
20260502005520 15 99 12.9 17.7 0.43 6.07 6.07 90 1009.0
20260502005017 15 42 14.5 20.9 0.97 6.05 6.05 89 1008.9
20260502004513 15 43 9.7 17.7 1.27 5.99 5.99 89 1009.1
20260502004009 15 357 9.7 17.7 0.89 5.89 5.89 89 1009.4
20260502003508 15 352 16.1 32.2 0.30 5.77 5.77 89 1009.6
20260502003004 15 4 17.7 24.1 0.30 5.74 5.74 89 1009.3
20260502002501 15 4 8.0 22.5 0.48 5.71 5.71 89 1009.7
20260502001958 15 20 12.9 22.5 0.30 5.69 5.69 89 1008.9
20260502001455 15 28 11.3 17.7 0.00 5.64 5.64 89 1008.7
20260502000953 15 16 3.2 9.7 0.00 5.64 5.64 89 1008.2
20260502000454 15 43 3.2 16.1 0.18 5.64 5.64 89 1008.8
20260501235947 15 14 9.7 22.5 0.30 5.64 5.64 89 1008.6
20260501235443 15 31 9.7 20.9 0.30 5.61 5.61 89 1009.0
20260501234938 15 9 16.1 32.2 0.18 5.59 5.59 89 1009.1
20260501234435 16 45 14.5 24.1 0.00 5.56 5.56 89 1008.5
20260501233934 16 340 14.5 20.9 0.13 5.56 5.56 89 1008.4
20260501233431 16 19 4.8 17.7 0.30 5.56 5.56 89 1008.1
20260501232927 16 44 12.9 17.7 0.30 5.54 5.54 89 1007.8
20260501232424 16 56 4.8 20.9 0.30 5.51 5.51 89 1007.7
20260501231921 16 44 6.4 22.5 0.18 5.49 5.49 89 1007.7
20260501231420 16 65 14.5 24.1 0.00 5.46 5.46 90 1008.0
20260501230917 16 21 4.8 22.5 0.00 5.46 5.46 90 1008.0
20260501230416 16 44 6.4 17.7 0.00 5.46 5.46 90 1007.8
20260501225913 16 54 11.3 33.8 0.00 5.46 5.46 90 1007.7
20260501225410 16 33 4.8 16.1 0.13 5.46 5.46 90 1008.2
20260501224906 16 76 0.0 16.1 0.00 5.44 5.44 90 1008.3
20260501224404 16 33 6.4 17.7 0.00 5.44 5.44 90 1008.6
20260501223900 16 63 3.2 11.3 0.18 5.44 5.44 90 1008.4
20260501223356 16 40 17.7 27.4 0.00 5.41 5.41 90 1008.4
20260501222852 16 44 1.6 9.7 0.00 5.41 5.41 90 1008.8
20260501222350 16 13 14.5 24.1 0.00 5.41 5.41 90 1008.9
20260501221846 16 64 6.4 11.3 0.00 5.41 5.41 90 1008.9
20260501221343 16 39 6.4 22.5 0.00 5.41 5.41 90 1008.9
20260501220842 16 46 11.3 24.1 0.00 5.41 5.41 90 1008.8
20260501220338 16 61 6.4 20.9 0.00 5.41 5.41 90 1008.7
20260501215835 16 59 4.8 11.3 0.00 5.41 5.41 91 1008.5
20260501215331 17 40 9.7 17.7 0.00 5.41 5.41 91 1008.4
20260501214827 16 36 8.0 22.5 0.13 5.41 5.41 90 1008.5
20260501214322 16 25 4.8 9.7 0.13 5.41 5.41 90 1008.6
20260501213819 16 69 3.2 11.3 0.36 5.38 5.38 90 1008.3
20260501213315 17 35 4.8 17.7 0.79 5.38 5.38 90 1007.8
20260501212811 17 61 14.5 27.4 0.89 5.33 5.33 90 1007.2
20260501212308 17 87 8.0 16.1 1.07 5.26 5.26 90 1007.3
20260501211805 17 56 1.6 11.3 1.37 5.18 5.18 90 1008.6
20260501211302 17 356 3.2 12.9 0.97 5.05 5.05 90 1008.3
20260501210759 17 0 6.4 17.7 0.43 4.95 4.95 90 1007.9
20260501210255 17 37 8.0 17.7 0.43 4.90 4.90 90 1007.9
20260501205752 17 79 6.4 12.9 0.30 4.88 4.88 90 1007.9
20260501205249 17 39 8.0 16.1 0.18 4.83 4.83 90 1008.1
20260501204746 17 106 0.0 6.4 0.48 4.83 4.83 90 1008.0
20260501204243 17 31 0.0 0.0 0.61 4.80 4.80 90 1007.8
20260501203739 17 60 0.0 4.8 0.61 4.75 4.75 90 1007.6
20260501203236 17 72 1.6 4.8 1.68 4.70 4.70 90 1007.4
20260501202733 17 52 3.2 11.3 2.77 4.65 4.65 90 1007.3
20260501202230 17 60 11.3 32.2 2.29 4.39 4.39 90 1006.2
20260501201727 17 78 6.4 16.1 2.29 4.19 4.19 90 1007.1
20260501201223 17 55 9.7 17.7 1.19 4.01 4.01 90 1007.5
20260501200720 17 40 4.8 17.7 0.61 3.81 3.81 90 1006.9
20260501200218 17 45 1.6 12.9 1.37 3.81 3.81 90 1007.0
20260501195715 17 38 16.1 22.5 3.66 3.71 3.71 89 1006.9
20260501195211 17 28 6.4 17.7 5.51 3.56 3.56 89 1006.7
20260501194707 17 62 11.3 20.9 3.25 3.00 3.00 88 1006.6
20260501194202 17 75 3.2 6.4 0.66 2.57 2.57 88 1008.4
20260501193659 17 28 0.0 9.7 0.30 2.46 2.46 88 1008.5
20260501193158 17 27 0.0 11.3 0.30 2.44 2.44 88 1007.1
20260501192655 17 356 6.4 24.1 0.18 2.39 2.39 88 1006.4
20260501192152 17 94 17.7 22.5 0.18 2.39 2.39 88 1007.1
20260501191649 17 32 6.4 20.9 0.00 2.36 2.36 88 1007.1
20260501191141 17 16 12.9 17.7 0.00 2.36 2.36 88 1007.4
20260501190637 17 34 4.8 24.1 0.00 2.36 2.36 88 1007.8
20260501190132 17 52 9.7 22.5 0.00 2.36 2.36 88 1007.1
20260501185628 17 76 12.9 17.7 0.00 2.36 2.36 88 1007.2
20260501185123 17 337 8.0 11.3 0.00 2.36 2.36 89 1007.4
20260501184620 17 334 9.7 12.9 0.00 2.36 2.36 89 1008.2
20260501184115 17 328 4.8 6.4 0.00 2.36 2.36 89 1008.2
20260501183613 17 22 0.0 11.3 0.00 2.36 2.36 89 1007.6
20260501183109 17 64 8.0 16.1 0.00 2.36 2.36 89 1007.5
20260501182605 17 39 6.4 17.7 0.00 2.36 2.36 89 1007.7
20260501182102 17 24 3.2 12.9 0.00 2.36 2.36 89 1007.8